Regional Weather Roundup
Issued by NWS San Diego, CA

Home | Current Version | Previous Version | Text Only | Print | Product List | Glossary On
Versions: 1 2 3 4 5 6 7 8 9 10 11 12 13 14 15 16 17 18 19 20 21 22 23 24 25 26 27 28 29 30 31 32 33 34 35 36 37 38 39 40 41 42 43 44 45 46 47 48 49 50
000
ASUS46 KSGX 281411
RWRSGX
SAN DIEGO HOURLY WEATHER ROUNDUP
NATIONAL WEATHER SERVICE SAN DIEGO CA
700 AM PDT WED JUN 28 2017

NOTE: "FAIR" INDICATES FEW OR NO CLOUDS BELOW 12,000 FEET WITH NO
SIGNIFICANT WEATHER AND/OR OBSTRUCTIONS TO VISIBILITY.

CAZ042-043-060-061-PZZ750-775-281500-

GREATER SAN DIEGO AREA

CITY           SKY/WX    TMP DP  RH WIND       PRES   REMARKS
SAN DIEGO AP   CLOUDY    63  58  83 VRB5      29.91R
NATIONAL CITY    N/A     63  60  90 CALM      29.90R
CHULA VISTA      N/A     62  60  93 CALM      29.82R
IMPERIAL BEACH CLOUDY    62  57  83 W3        29.90R
BROWN FIELD    CLOUDY    61  58  90 CALM      29.89R
MIRAMAR MCAS   CLOUDY    65  57  75 SW3       29.89R
MONTGOMERY FLD CLOUDY    63  57  81 CALM      29.90R
GILLESPIE FLD  CLOUDY    63  57  82 CALM      29.89S

$$

NORTH SAN DIEGO COUNTY

CITY           SKY/WX    TMP DP  RH WIND       PRES   REMARKS
CAMP PENDLETON CLOUDY    61  60  97 CALM      29.89R FOG
OCEANSIDE AP   CLOUDY    64  59  83 S3        29.89R
OCEANSIDE HBR    N/A     62  59  89 CALM      29.91R
VISTA            N/A     62  57  83 CALM      29.86R
CARLSBAD       CLOUDY    62  59  90 SE3       29.89R
DEL MAR          N/A     60  58  92 SW3       29.91R
LA JOLLA SCRIP   N/A     60  58  94 S2        29.89R
FALLBROOK        N/A     60  60 100 CALM      29.90R
ESCONDIDO        N/A     60  58  91 SE1       29.89R
SAN MARCOS       N/A     60  56  87 CALM      29.90R
POWAY            N/A     59  56  89 CALM      29.89R

$$

EAST SAN DIEGO COUNTY

CITY           SKY/WX    TMP DP  RH WIND       PRES   REMARKS
RAMONA         SUNNY     56  50  80 CALM      29.90R
SANTEE LAKES     N/A     61  59  91 CALM      29.87R
LA MESA          N/A     60  58  94 CALM      29.80S
JAMUL            N/A     56  55  94 CALM      29.86S
DESCANSO N       N/A     58  30  34 NE5       29.79R
CAMPO            N/A     52  30  43 N5        29.92S

$$

ORANGE COUNTY AND THE LOS ANGELES BASIN

CITY           SKY/WX    TMP DP  RH WIND       PRES   REMARKS
JOHN WAYNE AP  CLOUDY    63  58  83 E5        29.89R
LAKE FOREST FR   N/A     57  53  86 CALM      29.77R
HUNTINGTON BCH   N/A     62  60  93 CALM      29.90R
LOS ALAMITOS   CLOUDY    63  58  85 CALM      29.88R
FULLERTON      CLOUDY    64  59  83 E3        29.88R
LONG BEACH     CLOUDY    63  58  83 CALM      29.88R
L.A. AP        PTSUNNY   63  59  87 CALM      29.88R
L.A. DOWNTOWN  CLOUDY    66  60  81 CALM      29.88R

$$

THE INLAND EMPIRE

CITY           SKY/WX    TMP DP  RH WIND       PRES   REMARKS
CORONA         SUNNY     60  57  89 W6        29.89R
CHINO          SUNNY     62  57  83 CALM      29.89S
ONTARIO        MOSUNNY   65  54  67 CALM      29.88R
RIVERSIDE AP   SUNNY     63  55  75 CALM      29.88S
MORENO VALLEY    N/A     62  49  62 CALM      28.02R
MARCH ARB      SUNNY     65  43  44 CALM      29.89S
HORSETHIEF CYN   N/A     63  47  55 CALM      29.84R
PERRIS           N/A     60  45  57 CALM      29.89R
HEMET EAST       N/A     64  23  20 CALM      29.87S
FRENCH VALLEY  FAIR      61  46  59 CALM      29.90R
TEMECULA         N/A     56  49  74 CALM      29.95R

$$

SAN BERNARDINO AND RIVERSIDE COUNTY MOUNTAINS

CITY           SKY/WX    TMP DP  RH WIND       PRES   REMARKS
BIG BEAR AP    SUNNY     52  21  30 SW5       30.15S
ANGELUS OAKS     N/A     58  23  25 CALM      29.71S
PINE COVE        N/A     64   9  11 N3        29.78R

$$

SOUTHERN DESERT INCLUDING THE COACHELLA VALLEY

CITY           SKY/WX    TMP DP  RH WIND       PRES   REMARKS
PALM SPRINGS   SUNNY     81  43  26 SW3       29.73R
THOUSAND PALMS   N/A     85  31  14 N12       29.67R
PALM DESERT      N/A     74  50  42 CALM      27.34S
THERMAL        SUNNY     80  40  23 S8        29.68R
BLYTHE         SUNNY     77  28  16 N3        29.72R
IMPERIAL AP    SUNNY     79  67  66 VRB6      29.71R
EL CENTRO NAS  SUNNY     79  66  64 SE7       29.72R
YUMA AZ        SUNNY     81  71  71 SE14      29.73R
MEXICALI       SUNNY     73  61  64 SE8       29.73R

$$

UPPER DESERT

CITY           SKY/WX    TMP DP  RH WIND       PRES   REMARKS
VICTORVILLE AP SUNNY     72  34  25 SW14      29.90S
HESPERIA         N/A     69  28  21 W3        29.86S
PALMDALE       SUNNY     76  44  32 W8        29.90R
LANCASTER      SUNNY     74  48  39 W15       29.89R
EDWARDS AFB    SUNNY     71  49  44 SW17G23   29.84R
DAGGETT        SUNNY     79  34  19 W17       29.81R
29 PALMS N     SUNNY     78  18  10 W10       29.89R
NEEDLES        SUNNY     89  22   8 CALM      29.73R

$$

REGIONAL REPORTS

CITY           SKY/WX    TMP DP  RH WIND       PRES   REMARKS
SANTA BARBARA  CLOUDY    59  58  96 E6        29.87R FOG
SANDBERG       SUNNY     65  47  52 N23G30    30.03R
LAS VEGAS NV   SUNNY     84  21  10 S6        29.76R
PHOENIX AZ     MOSUNNY   87  43  21 SE6       29.81R
TIJUANA        CLOUDY    61  59  94 CALM      29.92R FOG
ENSENADA NW      N/A     63  32  31 CALM      29.85S

$$

OFFSHORE ISLANDS

CITY           SKY/WX    TMP DP  RH WIND       PRES   REMARKS
CATALINA ARPT  FOG       56  56 100 E5        29.89S VSB<1/4
SAN CLEMENTE I DRIZZLE   58  56  93 W7        29.90
SAN NICOLAS IS CLOUDY    57  54  89 NW20      29.89R

$$

MARINE AND OFFSHORE BUOY REPORTS

STATION/POSITION SKY/WX   TEMP    WIND        PRES    VSBY  SWELL
                          AIR SEA DIR/SP/G                  HT/PER/DIR
                          (F)     (DEG/KT/KT) (MB)    (MI)  (FT/S/D)
TANNER BANKS               59 63  310/ 19/ 23 1012.1          3/340/ 8
S CLEMENTE BASIN              64  300/  8/ 12 1012.3R         5/300/ 7
SAN NICOLAS IS.               60                N/A           2/190/13
SO. S. ROSA ISLA           55 57  320/ 21/ 25 1011.9R         2/220/13
W. S. BARBARA CH           53 53  310/ 21/ 27 1012.0R         3/250/13
M. S. BARBARA CH           60 60   40/  4/  6 1012.1R         3/250/ 6
S. MONICA BASIN            62 65   40/  4/  8 1011.5R         3/260/ 7
S PEDRO CHANNEL               65                N/A           2/170/13
CMP PENDLETON NS              65                N/A           2/220/18
OCEANSIDE OFFSHR              67                N/A           2/200/18
TORREY PINES OTR              67                N/A           2/200/18
SAN DIEGO BAY                 71              1012.5R
POINT LOMA SOUTH              67                N/A           2/200/13

$$





USA.gov is the U.S. government's official web portal to all federal, state and local government web resources and services.